Tracking 26258 objects as of 3-Oct-2022
HD Live streaming from Space Station
objects crossing your sky now

STARLINK-4542

Track STARLINK-4542 now!
10-day predictions
STARLINK-4542 is classified as:


NORAD ID: 53435
Int'l Code: 2022-097AZ
Perigee: 354.5 km
Apogee: 359.3 km
Inclination: 53.2 °
Period: 91.5 minutes
Semi major axis: 6727 km
RCS: Unknown
Launch date: August 10, 2022
Source: United States (US)
Launch site: AIR FORCE EASTERN TEST RANGE (AFETR)
aabbcc
Your satellite tracking list
Your tracking list is empty




NASA's NSSDC Master Catalog

Two Line Element Set (TLE):
1 53435U 22097AZ  22275.91667824  .00054357  00000-0  38927-3 0  9997
2 53435  53.2172 342.1738 0003580  15.7332 239.1360 15.73190743  1305
Source of the keplerian elements: AFSPC